Terminal Aerodrome Forecast
Issued by NWS Wilmington, OH

Current Version | Previous Version | Graphics & Text | Print | Product List | Glossary On
Versions: 1 2 3 4 5 6 7 8 9 10 11 12 13 14 15 16 17 18 19 20 21
000
FTUS41 KILN 241700 RRA
TAFILN
TAF
KILN 241740Z 2418/2518 23010KT P6SM OVC016
      TEMPO 2418/2419 SCT016 BKN060
     FM242100 22006KT P6SM SCT025 SCT050
     FM251000 19005KT P6SM BKN080
     FM251300 15007KT P6SM SCT040 OVC070=

USA.gov is the U.S. government's official web portal to all federal, state and local government web resources and services.